Weather in Viakhtu

Russia / Sakhalin District     51°34′37″N   141°56′23″E
temp.,
°C
wind,
m/s
gust,
m/s
humid.,
%
clouds,
%
prec.,
mm/h
press.,
hPa
HPBL,
m
14 may, fri
fri1423:00+5se4789100 0.2 1011324
02:00+4se3790100 0.1 1011320
05:00+4ese3491100 0.1 101078
08:00+5ese3387100 0.0 1011102
11:00+6sw1284100 0.0 1012249
14:00+5wsw1192100 0.2 101275
17:00+5wnw218853 0.2 1012121
20:00+5wnw228949 0.0 101332
15 may, sat
sat1523:00+3ene119655 0.0 101420
02:00+3ese119855 0.0 101413
05:00+3se2398100 0.1 101320
08:00+4s3493100 0.0 1012107
11:00+6s3580100 0.0 1009219
14:00+5ssw5882100 0.0 1006271
17:00+8sse71880100 0.9 1002953
20:00+7s142690100 5.2 997999
16 may, sun
sun1623:00+4s162597100 6.4 996584
02:00+4s142298100 0.4 994478
05:00+3s142098100 0.8 992395
08:00+3ssw111798100 1.8 993345
11:00+5sw101683100 1.9 993602
14:00+4wsw6137718 0.0 995809
17:00+6w7146621 0.0 995762
20:00+5sw410785 0.0 998644
17 may, mon
mon1723:00+3sw34885 0.0 100046
02:00+3ssw23878 0.0 100028
05:00+3sse3592100 0.0 100075
08:00+6ese22782 0.0 99990
11:00+7sw5775100 0.1 998428
14:00+5ssw478855 0.7 998212
17:00+6s238155 0.7 998168
20:00+5sw5686100 0.1 998127
18 may, tue
tue1823:00+5se22958 4.5 99827
02:00+3w249890 0.1 999137
05:00+3nnw249697 0.1 1001106
08:00+4n2391100 0.1 1004162
11:00+6wnw338185 0.1 1005418
14:00+5wnw338157 0.0 1006344
17:00+5w227955 0.0 1006314
20:00+5wnw2284100 0.0 100652